| time (UTC) | temp F | wind direction | speed MPH | gust MPH | rain 1hr in | rain 24hr in | rain mn in | humidity % | barometer mb |
| 20260831102846 | 60 | 120 | 0.0 | 0.0 | 0.00 | 0.00 | 0.00 | 99 | 1026.1 |
| 20260831102341 | 59 | 119 | 0.0 | 0.0 | 0.00 | 0.00 | 0.00 | 99 | 1026.1 |
| 20260831101837 | 59 | 119 | 0.0 | 0.0 | 0.00 | 0.00 | 0.00 | 99 | 1026.0 |
| 20260831101331 | 59 | 119 | 0.0 | 0.0 | 0.00 | 0.00 | 0.00 | 99 | 1026.0 |
| 20260831100828 | 59 | 119 | 0.0 | 0.0 | 0.00 | 0.00 | 0.00 | 99 | 1026.0 |
| 20260831100324 | 59 | 119 | 0.0 | 0.0 | 0.00 | 0.00 | 0.00 | 99 | 1026.1 |
| 20260831095823 | 58 | 119 | 0.0 | 0.0 | 0.00 | 0.00 | 0.00 | 99 | 1026.1 |
| 20260831095318 | 59 | 119 | 0.0 | 0.0 | 0.00 | 0.00 | 0.00 | 99 | 1026.0 |
| 20260831094813 | 59 | 120 | 0.0 | 0.0 | 0.00 | 0.00 | 0.00 | 99 | 1026.0 |
| 20260831094308 | 59 | 120 | 0.0 | 0.0 | 0.00 | 0.00 | 0.00 | 99 | 1026.0 |
| 20260831093804 | 60 | 121 | 0.0 | 0.0 | 0.00 | 0.00 | 0.00 | 99 | 1026.0 |
| 20260831093304 | 60 | 121 | 0.0 | 0.0 | 0.00 | 0.00 | 0.00 | 99 | 1025.9 |
| 20260831092800 | 60 | 121 | 0.0 | 0.0 | 0.00 | 0.00 | 0.00 | 99 | 1026.1 |
| 20260831092256 | 60 | 122 | 0.0 | 0.0 | 0.00 | 0.00 | 0.00 | 99 | 1026.1 |
| 20260831091755 | 60 | 122 | 0.0 | 0.0 | 0.00 | 0.00 | 0.00 | 99 | 1025.9 |
| 20260831091251 | 60 | 121 | 0.0 | 0.0 | 0.00 | 0.00 | 0.00 | 99 | 1025.9 |
| 20260831090746 | 60 | 121 | 0.0 | 0.0 | 0.00 | 0.00 | 0.00 | 99 | 1025.7 |
| 20260831090242 | 60 | 121 | 0.0 | 0.0 | 0.00 | 0.00 | 0.00 | 99 | 1025.8 |
| 20260831085738 | 60 | 122 | 0.0 | 0.0 | 0.00 | 0.00 | 0.00 | 99 | 1025.8 |
| 20260831085233 | 60 | 122 | 0.0 | 0.0 | 0.00 | 0.00 | 0.00 | 99 | 1025.9 |
| 20260831084728 | 60 | 122 | 0.0 | 0.0 | 0.00 | 0.00 | 0.00 | 99 | 1025.7 |
| 20260831084224 | 61 | 124 | 0.0 | 0.0 | 0.00 | 0.00 | 0.00 | 99 | 1025.7 |
| 20260831083720 | 61 | 124 | 0.0 | 0.0 | 0.00 | 0.00 | 0.00 | 99 | 1025.9 |
| 20260831083216 | 61 | 124 | 0.0 | 0.0 | 0.00 | 0.00 | 0.00 | 99 | 1025.8 |
| 20260831082714 | 61 | 124 | 0.0 | 0.0 | 0.00 | 0.00 | 0.00 | 99 | 1026.0 |
| 20260831082210 | 62 | 126 | 0.0 | 0.0 | 0.00 | 0.00 | 0.00 | 99 | 1026.0 |
| 20260831081705 | 62 | 126 | 0.0 | 0.0 | 0.00 | 0.00 | 0.00 | 99 | 1025.9 |
| 20260831081200 | 62 | 126 | 0.0 | 0.0 | 0.00 | 0.00 | 0.00 | 99 | 1025.6 |
| 20260831080656 | 62 | 126 | 0.0 | 0.0 | 0.00 | 0.00 | 0.00 | 99 | 1025.7 |
| 20260831080155 | 62 | 126 | 0.0 | 0.0 | 0.00 | 0.00 | 0.00 | 99 | 1025.4 |
| 20260831075652 | 62 | 127 | 0.0 | 0.0 | 0.00 | 0.00 | 0.00 | 99 | 1025.6 |
| 20260831075147 | 62 | 126 | 0.0 | 0.0 | 0.00 | 0.00 | 0.00 | 99 | 1025.4 |
| 20260831074646 | 62 | 125 | 0.0 | 0.0 | 0.00 | 0.00 | 0.00 | 99 | 1025.5 |
| 20260831074141 | 61 | 126 | 0.0 | 0.0 | 0.00 | 0.00 | 0.00 | 99 | 1025.4 |
| 20260831073636 | 61 | 126 | 0.0 | 0.0 | 0.00 | 0.00 | 0.00 | 98 | 1025.5 |
| 20260831073135 | 62 | 127 | 0.0 | 0.0 | 0.00 | 0.00 | 0.00 | 98 | 1025.6 |
| 20260831072631 | 62 | 127 | 0.0 | 0.0 | 0.00 | 0.00 | 0.00 | 98 | 1025.7 |
| 20260831072127 | 62 | 129 | 0.0 | 0.0 | 0.00 | 0.00 | 0.00 | 98 | 1025.7 |
| 20260831071626 | 62 | 130 | 0.0 | 0.0 | 0.00 | 0.00 | 0.00 | 98 | 1025.8 |
| 20260831071121 | 62 | 130 | 0.0 | 0.0 | 0.00 | 0.00 | 0.00 | 98 | 1025.7 |
| 20260831070621 | 63 | 130 | 0.0 | 0.0 | 0.00 | 0.00 | 0.00 | 98 | 1026.0 |
| 20260831070115 | 62 | 131 | 0.0 | 0.0 | 0.00 | 0.00 | 0.00 | 99 | 1025.8 |
| 20260831065613 | 62 | 129 | 0.0 | 0.0 | 0.00 | 0.00 | 0.00 | 99 | 1025.7 |
| 20260831065108 | 62 | 128 | 0.0 | 0.0 | 0.00 | 0.00 | 0.00 | 99 | 1025.7 |
| 20260831064603 | 62 | 127 | 0.0 | 0.0 | 0.00 | 0.00 | 0.00 | 99 | 1025.5 |
| 20260831064058 | 61 | 127 | 0.0 | 0.0 | 0.00 | 0.00 | 0.00 | 99 | 1025.7 |
| 20260831063554 | 61 | 127 | 0.0 | 0.0 | 0.00 | 0.00 | 0.00 | 99 | 1025.8 |
| 20260831063048 | 61 | 127 | 0.0 | 0.0 | 0.00 | 0.00 | 0.00 | 99 | 1025.8 |
| 20260831062543 | 61 | 127 | 0.0 | 0.0 | 0.00 | 0.00 | 0.00 | 98 | 1026.1 |
| 20260831062042 | 61 | 130 | 0.0 | 0.0 | 0.00 | 0.00 | 0.00 | 98 | 1026.2 |
| 20260831061540 | 62 | 130 | 0.0 | 0.0 | 0.00 | 0.00 | 0.00 | 98 | 1026.0 |
| 20260831061038 | 62 | 132 | 0.0 | 0.0 | 0.00 | 0.00 | 0.00 | 98 | 1026.2 |
| 20260831060537 | 62 | 132 | 0.0 | 0.0 | 0.00 | 0.00 | 0.00 | 98 | 1026.2 |
| 20260831060028 | 62 | 131 | 0.0 | 0.0 | 0.00 | 0.00 | 0.00 | 98 | 1026.4 |
| 20260831055522 | 62 | 133 | 0.0 | 0.0 | 0.00 | 0.00 | 0.00 | 98 | 1026.4 |
| 20260831055018 | 62 | 139 | 0.0 | 0.0 | 0.00 | 0.00 | 0.00 | 97 | 1026.4 |
| 20260831054517 | 63 | 141 | 0.0 | 0.0 | 0.00 | 0.00 | 0.00 | 97 | 1026.3 |
| 20260831054016 | 63 | 149 | 0.0 | 0.0 | 0.00 | 0.00 | 0.00 | 96 | 1026.2 |
| 20260831053514 | 64 | 157 | 0.0 | 0.0 | 0.00 | 0.00 | 0.00 | 96 | 1026.3 |
| 20260831053010 | 63 | 155 | 0.0 | 0.0 | 0.00 | 0.00 | 0.00 | 97 | 1026.1 |
| 20260831052509 | 63 | 151 | 0.0 | 0.0 | 0.00 | 0.00 | 0.00 | 97 | 1026.3 |
| 20260831052008 | 63 | 150 | 0.0 | 0.0 | 0.00 | 0.00 | 0.00 | 97 | 1026.2 |
| 20260831051506 | 63 | 156 | 0.0 | 0.0 | 0.00 | 0.00 | 0.00 | 97 | 1026.6 |
| 20260831051001 | 64 | 174 | 0.0 | 0.0 | 0.00 | 0.00 | 0.00 | 95 | 1026.4 |
| 20260831050500 | 64 | 195 | 0.0 | 0.0 | 0.00 | 0.00 | 0.00 | 95 | 1026.3 |
| 20260831045959 | 64 | 218 | 0.0 | 0.0 | 0.00 | 0.00 | 0.00 | 95 | 1026.4 |
| 20260831045458 | 65 | 233 | 0.0 | 0.0 | 0.00 | 0.00 | 0.00 | 94 | 1026.7 |
| 20260831044954 | 65 | 242 | 0.0 | 0.0 | 0.00 | 0.00 | 0.00 | 94 | 1026.4 |
| 20260831044449 | 65 | 254 | 0.0 | 0.0 | 0.00 | 0.00 | 0.00 | 94 | 1026.6 |
| 20260831043945 | 66 | 257 | 0.0 | 0.0 | 0.00 | 0.00 | 0.00 | 93 | 1026.7 |
| 20260831043444 | 66 | 258 | 0.0 | 0.0 | 0.00 | 0.00 | 0.00 | 93 | 1026.8 |
| 20260831042940 | 66 | 262 | 0.0 | 0.0 | 0.00 | 0.00 | 0.00 | 92 | 1026.7 |
| 20260831042439 | 66 | 263 | 0.0 | 0.0 | 0.00 | 0.00 | 0.00 | 92 | 1026.4 |
| 20260831041939 | 66 | 264 | 0.0 | 0.0 | 0.00 | 0.00 | 0.00 | 92 | 1026.6 |
| 20260831041439 | 66 | 264 | 0.0 | 0.0 | 0.00 | 0.00 | 0.00 | 91 | 1026.9 |
| 20260831040934 | 66 | 265 | 0.0 | 0.0 | 0.00 | 0.00 | 0.00 | 91 | 1026.7 |
| 20260831040429 | 66 | 264 | 0.0 | 0.0 | 0.00 | 0.00 | 0.00 | 91 | 1026.9 |
| 20260831035926 | 66 | 263 | 0.0 | 0.0 | 0.00 | 0.01 | 0.01 | 92 | 1026.9 |
| 20260831035420 | 65 | 260 | 0.0 | 0.0 | 0.00 | 0.01 | 0.01 | 93 | 1026.8 |
| 20260831034915 | 65 | 258 | 0.0 | 0.0 | 0.00 | 0.01 | 0.01 | 94 | 1026.8 |
| 20260831034410 | 65 | 257 | 0.0 | 0.0 | 0.00 | 0.01 | 0.01 | 95 | 1027.0 |
| 20260831033905 | 65 | 258 | 0.0 | 0.0 | 0.00 | 0.01 | 0.01 | 95 | 1026.8 |
| 20260831033401 | 65 | 261 | 0.0 | 0.0 | 0.00 | 0.01 | 0.01 | 95 | 1026.8 |
| 20260831032856 | 65 | 264 | 0.0 | 0.0 | 0.00 | 0.01 | 0.01 | 95 | 1026.8 |
| 20260831032350 | 65 | 265 | 0.0 | 0.0 | 0.00 | 0.01 | 0.01 | 94 | 1027.1 |
| 20260831031846 | 66 | 268 | 0.0 | 0.0 | 0.00 | 0.01 | 0.01 | 93 | 1027.0 |
| 20260831031345 | 66 | 269 | 0.0 | 0.0 | 0.00 | 0.01 | 0.01 | 93 | 1027.1 |
| 20260831030840 | 66 | 272 | 0.0 | 0.0 | 0.00 | 0.01 | 0.01 | 93 | 1027.1 |
| 20260831030338 | 66 | 272 | 0.0 | 0.0 | 0.00 | 0.01 | 0.01 | 92 | 1026.9 |
| 20260831025837 | 66 | 273 | 0.0 | 0.0 | 0.00 | 0.01 | 0.01 | 92 | 1027.1 |
| 20260831025337 | 66 | 272 | 1.0 | 1.0 | 0.00 | 0.01 | 0.01 | 92 | 1026.8 |
| 20260831024833 | 66 | 272 | 1.0 | 2.0 | 0.00 | 0.01 | 0.01 | 92 | 1027.2 |
| 20260831024332 | 66 | 272 | 1.0 | 2.0 | 0.00 | 0.01 | 0.01 | 92 | 1027.1 |
| 20260831023831 | 66 | 273 | 1.0 | 2.0 | 0.00 | 0.01 | 0.01 | 91 | 1027.2 |
| 20260831023330 | 66 | 272 | 1.0 | 2.0 | 0.00 | 0.01 | 0.01 | 91 | 1027.1 |
| 20260831022825 | 66 | 272 | 2.0 | 2.0 | 0.00 | 0.01 | 0.01 | 91 | 1027.3 |
| 20260831022324 | 66 | 266 | 2.0 | 2.0 | 0.00 | 0.01 | 0.01 | 91 | 1027.2 |
| 20260831021819 | 66 | 276 | 2.0 | 2.0 | 0.00 | 0.01 | 0.01 | 91 | 1027.1 |
| 20260831021318 | 67 | 278 | 2.0 | 2.0 | 0.00 | 0.01 | 0.01 | 91 | 1027.2 |
| 20260831020815 | 67 | 279 | 2.0 | 2.0 | 0.00 | 0.01 | 0.01 | 91 | 1027.0 |
| 20260831020314 | 67 | 279 | 2.0 | 2.0 | 0.00 | 0.01 | 0.01 | 90 | 1027.0 |
| 20260831015810 | 67 | 281 | 2.0 | 2.0 | 0.00 | 0.01 | 0.01 | 91 | 1027.1 |
| 20260831015306 | 67 | 281 | 0.0 | 0.0 | 0.00 | 0.01 | 0.01 | 91 | 1027.1 |
| 20260831014805 | 67 | 281 | 0.0 | 0.0 | 0.00 | 0.01 | 0.01 | 91 | 1027.1 |
| 20260831014300 | 67 | 281 | 0.0 | 0.0 | 0.00 | 0.01 | 0.01 | 92 | 1026.9 |
| 20260831013757 | 66 | 281 | 0.0 | 0.0 | 0.00 | 0.01 | 0.01 | 92 | 1026.9 |
| 20260831013255 | 67 | 281 | 0.0 | 0.0 | 0.00 | 0.01 | 0.01 | 91 | 1027.2 |
| 20260831012751 | 68 | 284 | 0.0 | 0.0 | 0.00 | 0.01 | 0.01 | 89 | 1027.2 |
| 20260831012246 | 68 | 284 | 0.0 | 0.0 | 0.00 | 0.01 | 0.01 | 89 | 1026.9 |
| 20260831011745 | 68 | 284 | 0.0 | 0.0 | 0.00 | 0.01 | 0.01 | 89 | 1027.1 |
| 20260831011241 | 68 | 282 | 0.0 | 0.0 | 0.00 | 0.01 | 0.01 | 89 | 1027.1 |
| 20260831010737 | 67 | 280 | 0.0 | 0.0 | 0.00 | 0.01 | 0.01 | 89 | 1026.9 |
| 20260831010236 | 67 | 273 | 0.0 | 0.0 | 0.00 | 0.01 | 0.01 | 90 | 1026.9 |
| 20260831005732 | 66 | 263 | 0.0 | 0.0 | 0.00 | 0.01 | 0.01 | 92 | 1026.8 |
| 20260831005227 | 65 | 216 | 0.0 | 0.0 | 0.00 | 0.01 | 0.01 | 94 | 1026.7 |
| 20260831004722 | 64 | 191 | 0.0 | 0.0 | 0.00 | 0.01 | 0.01 | 95 | 1026.4 |
| 20260831004219 | 64 | 190 | 0.0 | 0.0 | 0.00 | 0.01 | 0.01 | 95 | 1026.6 |
| 20260831003714 | 64 | 190 | 0.0 | 0.0 | 0.00 | 0.01 | 0.01 | 95 | 1026.3 |
| 20260831003211 | 64 | 191 | 0.0 | 0.0 | 0.00 | 0.01 | 0.01 | 94 | 1026.2 |
| 20260831002710 | 65 | 192 | 0.0 | 0.0 | 0.00 | 0.01 | 0.01 | 93 | 1026.1 |
| 20260831002210 | 65 | 192 | 0.0 | 0.0 | 0.00 | 0.01 | 0.01 | 93 | 1025.9 |
| 20260831001706 | 65 | 198 | 0.0 | 0.0 | 0.00 | 0.01 | 0.01 | 93 | 1026.0 |
| 20260831001206 | 65 | 198 | 0.0 | 0.0 | 0.00 | 0.01 | 0.01 | 94 | 1025.9 |
| 20260831000703 | 65 | 200 | 0.0 | 0.0 | 0.00 | 0.01 | 0.01 | 93 | 1025.8 |
| 20260831000158 | 66 | 201 | 0.0 | 0.0 | 0.00 | 0.01 | 0.01 | 91 | 1026.1 |
| 20260830235656 | 67 | 203 | 0.0 | 0.0 | 0.00 | 0.01 | 0.01 | 90 | 1025.8 |
| 20260830235152 | 67 | 204 | 1.0 | 1.0 | 0.00 | 0.01 | 0.01 | 88 | 1026.0 |
| 20260830234646 | 67 | 209 | 1.0 | 2.0 | 0.00 | 0.01 | 0.01 | 88 | 1025.8 |
| 20260830234142 | 68 | 212 | 0.0 | 0.0 | 0.00 | 0.01 | 0.01 | 86 | 1025.8 |
| 20260830233637 | 68 | 213 | 0.0 | 1.0 | 0.00 | 0.01 | 0.01 | 85 | 1025.8 |
| 20260830233133 | 69 | 214 | 1.0 | 1.0 | 0.00 | 0.01 | 0.01 | 85 | 1025.7 |
| 20260830232629 | 69 | 214 | 0.0 | 0.0 | 0.00 | 0.01 | 0.01 | 86 | 1025.7 |
| 20260830232125 | 69 | 215 | 0.0 | 0.0 | 0.00 | 0.01 | 0.01 | 85 | 1025.7 |
| 20260830231621 | 69 | 215 | 0.0 | 0.0 | 0.00 | 0.01 | 0.01 | 85 | 1025.8 |
| 20260830231119 | 69 | 216 | 0.0 | 0.0 | 0.00 | 0.01 | 0.01 | 85 | 1025.8 |
| 20260830230615 | 70 | 217 | 0.0 | 0.0 | 0.00 | 0.01 | 0.01 | 84 | 1025.9 |
| 20260830230115 | 70 | 218 | 0.0 | 0.0 | 0.00 | 0.01 | 0.01 | 83 | 1025.9 |
| 20260830225610 | 71 | 222 | 0.0 | 0.0 | 0.00 | 0.01 | 0.01 | 80 | 1026.0 |
| 20260830225105 | 71 | 223 | 2.0 | 3.0 | 0.00 | 0.01 | 0.01 | 79 | 1026.0 |
| 20260830224603 | 71 | 212 | 1.0 | 2.0 | 0.00 | 0.01 | 0.01 | 78 | 1025.9 |
| 20260830224100 | 71 | 211 | 2.0 | 3.0 | 0.00 | 0.01 | 0.01 | 79 | 1026.1 |
| 20260830223557 | 71 | 223 | 2.0 | 2.0 | 0.00 | 0.01 | 0.01 | 78 | 1026.3 |
| 20260830223051 | 71 | 222 | 2.0 | 3.0 | 0.00 | 0.01 | 0.01 | 76 | 1026.2 |
| 20260830222551 | 70 | 210 | 0.0 | 0.0 | 0.00 | 0.01 | 0.01 | 79 | 1026.1 |
| 20260830222048 | 70 | 210 | 0.0 | 0.0 | 0.00 | 0.01 | 0.01 | 79 | 1026.2 |
| 20260830221543 | 70 | 210 | 0.0 | 0.0 | 0.00 | 0.01 | 0.01 | 79 | 1026.3 |
| 20260830221040 | 71 | 211 | 0.0 | 0.0 | 0.00 | 0.01 | 0.01 | 80 | 1026.3 |
| 20260830220539 | 71 | 218 | 2.0 | 2.0 | 0.00 | 0.01 | 0.01 | 79 | 1026.4 |
| 20260830220037 | 71 | 220 | 3.0 | 4.0 | 0.00 | 0.01 | 0.01 | 79 | 1026.7 |
| 20260830215531 | 71 | 238 | 4.0 | 7.0 | 0.00 | 0.01 | 0.01 | 81 | 1026.7 |
| 20260830215026 | 72 | 215 | 2.0 | 2.0 | 0.00 | 0.01 | 0.01 | 83 | 1026.7 |
| 20260830214521 | 72 | 187 | 0.0 | 0.0 | 0.00 | 0.01 | 0.01 | 81 | 1026.3 |
| 20260830214021 | 72 | 180 | 0.0 | 0.0 | 0.00 | 0.01 | 0.01 | 81 | 1026.3 |
| 20260830213516 | 73 | 180 | 0.0 | 1.0 | 0.00 | 0.01 | 0.01 | 79 | 1026.2 |
| 20260830213012 | 74 | 169 | 0.0 | 0.0 | 0.00 | 0.01 | 0.01 | 77 | 1026.1 |
| 20260830212507 | 75 | 166 | 0.0 | 0.0 | 0.00 | 0.01 | 0.01 | 74 | 1026.2 |
| 20260830212007 | 76 | 205 | 1.0 | 2.0 | 0.00 | 0.01 | 0.01 | 74 | 1026.2 |
| 20260830211502 | 76 | 138 | 0.0 | 0.0 | 0.00 | 0.01 | 0.01 | 74 | 1026.0 |
| 20260830210957 | 76 | 173 | 0.0 | 0.0 | 0.00 | 0.01 | 0.01 | 74 | 1026.1 |
| 20260830210457 | 77 | 130 | 0.0 | 0.0 | 0.00 | 0.01 | 0.01 | 72 | 1026.0 |
| 20260830205955 | 77 | 148 | 0.0 | 0.0 | 0.00 | 0.01 | 0.01 | 71 | 1026.0 |
| 20260830205454 | 76 | 116 | 0.0 | 0.0 | 0.00 | 0.01 | 0.01 | 72 | 1025.8 |
| 20260830204949 | 75 | 113 | 2.0 | 2.0 | 0.00 | 0.01 | 0.01 | 73 | 1026.0 |
| 20260830204448 | 74 | 196 | 0.0 | 0.0 | 0.00 | 0.01 | 0.01 | 75 | 1025.8 |
| 20260830203943 | 74 | 211 | 1.0 | 3.0 | 0.00 | 0.01 | 0.01 | 75 | 1026.0 |
| 20260830203440 | 73 | 216 | 0.0 | 0.0 | 0.00 | 0.01 | 0.01 | 76 | 1026.1 |
| 20260830202938 | 73 | 214 | 0.0 | 2.0 | 0.00 | 0.01 | 0.01 | 75 | 1026.0 |
| 20260830202434 | 73 | 206 | 0.0 | 0.0 | 0.00 | 0.01 | 0.01 | 78 | 1026.0 |
| 20260830201925 | 73 | 214 | 2.0 | 2.0 | 0.00 | 0.01 | 0.01 | 76 | 1026.1 |
| 20260830201423 | 72 | 217 | 2.0 | 3.0 | 0.00 | 0.01 | 0.01 | 81 | 1026.2 |
| 20260830200919 | 71 | 220 | 2.0 | 2.0 | 0.00 | 0.01 | 0.01 | 81 | 1026.4 |
| 20260830200419 | 72 | 208 | 1.0 | 2.0 | 0.00 | 0.01 | 0.01 | 83 | 1026.3 |
| 20260830195914 | 71 | 178 | 0.0 | 0.0 | 0.00 | 0.01 | 0.01 | 84 | 1026.2 |
| 20260830195414 | 71 | 177 | 0.0 | 0.0 | 0.00 | 0.01 | 0.01 | 83 | 1026.6 |
| 20260830194907 | 69 | 183 | 0.0 | 0.0 | 0.00 | 0.01 | 0.01 | 87 | 1026.8 |
| 20260830194406 | 70 | 184 | 0.0 | 0.0 | 0.00 | 0.01 | 0.01 | 85 | 1027.0 |
| 20260830193901 | 70 | 195 | 0.0 | 2.0 | 0.00 | 0.01 | 0.01 | 80 | 1027.2 |
| 20260830193400 | 71 | 236 | 2.0 | 4.0 | 0.00 | 0.01 | 0.01 | 81 | 1027.3 |
| 20260830192856 | 73 | 245 | 4.0 | 6.0 | 0.00 | 0.01 | 0.01 | 79 | 1027.3 |
| 20260830192355 | 73 | 223 | 2.0 | 2.0 | 0.00 | 0.01 | 0.01 | 76 | 1027.3 |
| 20260830191851 | 71 | 227 | 2.0 | 3.0 | 0.00 | 0.01 | 0.01 | 77 | 1027.3 |
| 20260830191351 | 71 | 209 | 0.0 | 0.0 | 0.00 | 0.01 | 0.01 | 85 | 1027.5 |
| 20260830190848 | 70 | 210 | 0.0 | 0.0 | 0.00 | 0.01 | 0.01 | 84 | 1027.4 |
| 20260830190347 | 69 | 209 | 0.0 | 0.0 | 0.00 | 0.01 | 0.01 | 87 | 1027.6 |
| 20260830185846 | 68 | 211 | 2.0 | 3.0 | 0.00 | 0.01 | 0.01 | 89 | 1027.6 |
| 20260830185341 | 68 | 245 | 4.0 | 4.0 | 0.00 | 0.01 | 0.01 | 88 | 1027.6 |
| 20260830184831 | 68 | 235 | 4.0 | 6.0 | 0.00 | 0.01 | 0.01 | 90 | 1027.9 |
| 20260830184330 | 68 | 205 | 3.0 | 4.0 | 0.00 | 0.01 | 0.01 | 92 | 1027.7 |
| 20260830183819 | 68 | 229 | 3.0 | 4.0 | 0.05 | 0.01 | 0.01 | 92 | 1027.7 |
| 20260830183319 | 69 | 233 | 4.0 | 4.0 | 0.05 | 0.01 | 0.01 | 90 | 1027.9 |
| 20260830182814 | 72 | 236 | 4.0 | 9.0 | 0.00 | 0.00 | 0.00 | 82 | 1027.3 |
| 20260830182310 | 77 | 179 | 3.0 | 3.0 | 0.00 | 0.00 | 0.00 | 66 | 1027.4 |
| 20260830181807 | 80 | 162 | 0.0 | 1.0 | 0.00 | 0.00 | 0.00 | 65 | 1027.3 |
| 20260830181302 | 82 | 178 | 2.0 | 3.0 | 0.00 | 0.00 | 0.00 | 62 | 1027.2 |
| 20260830180801 | 81 | 173 | 0.0 | 3.0 | 0.00 | 0.00 | 0.00 | 65 | 1027.3 |
| 20260830180256 | 81 | 176 | 2.0 | 7.0 | 0.00 | 0.00 | 0.00 | 64 | 1027.4 |
| 20260830175755 | 80 | 329 | 0.0 | 2.0 | 0.00 | 0.00 | 0.00 | 63 | 1027.3 |
| 20260830175250 | 80 | 328 | 1.0 | 3.0 | 0.00 | 0.00 | 0.00 | 63 | 1027.4 |
| 20260830174745 | 79 | 329 | 2.0 | 3.0 | 0.00 | 0.00 | 0.00 | 64 | 1027.5 |
| 20260830174241 | 76 | 327 | 0.0 | 2.0 | 0.00 | 0.00 | 0.00 | 68 | 1027.5 |
| 20260830173740 | 78 | 330 | 2.0 | 2.0 | 0.00 | 0.00 | 0.00 | 66 | 1027.5 |
| 20260830173235 | 79 | 329 | 2.0 | 3.0 | 0.00 | 0.00 | 0.00 | 64 | 1027.7 |
| 20260830172732 | 77 | 329 | 2.0 | 3.0 | 0.00 | 0.00 | 0.00 | 67 | 1027.9 |
| 20260830172229 | 78 | 328 | 2.0 | 4.0 | 0.00 | 0.00 | 0.00 | 68 | 1027.7 |
| 20260830171724 | 80 | 327 | 3.0 | 3.0 | 0.00 | 0.00 | 0.00 | 66 | 1027.7 |
| 20260830171219 | 80 | 330 | 1.0 | 3.0 | 0.00 | 0.00 | 0.00 | 64 | 1027.6 |
| 20260830170713 | 80 | 32 | 2.0 | 3.0 | 0.00 | 0.00 | 0.00 | 66 | 1027.7 |
| 20260830170212 | 80 | 327 | 0.0 | 3.0 | 0.00 | 0.00 | 0.00 | 68 | 1027.6 |
| 20260830165712 | 79 | 329 | 2.0 | 3.0 | 0.00 | 0.00 | 0.00 | 68 | 1027.6 |
| 20260830165208 | 76 | 327 | 3.0 | 4.0 | 0.00 | 0.00 | 0.00 | 72 | 1027.9 |
| 20260830164704 | 77 | 319 | 5.0 | 6.0 | 0.00 | 0.00 | 0.00 | 75 | 1028.1 |
| 20260830164200 | 75 | 326 | 1.0 | 3.0 | 0.00 | 0.00 | 0.00 | 75 | 1028.0 |
| 20260830163656 | 75 | 326 | 2.0 | 4.0 | 0.00 | 0.00 | 0.00 | 75 | 1028.1 |
| 20260830163156 | 76 | 323 | 3.0 | 7.0 | 0.00 | 0.00 | 0.00 | 72 | 1028.0 |
| 20260830162651 | 77 | 323 | 2.0 | 6.0 | 0.00 | 0.00 | 0.00 | 73 | 1028.1 |
| 20260830162147 | 74 | 327 | 2.0 | 3.0 | 0.00 | 0.00 | 0.00 | 75 | 1028.1 |
| 20260830161642 | 75 | 327 | 3.0 | 4.0 | 0.00 | 0.00 | 0.00 | 77 | 1028.1 |
| 20260830161137 | 76 | 329 | 3.0 | 3.0 | 0.00 | 0.00 | 0.00 | 73 | 1028.0 |
| 20260830160634 | 75 | 337 | 1.0 | 2.0 | 0.00 | 0.00 | 0.00 | 75 | 1028.2 |
| 20260830160133 | 76 | 337 | 1.0 | 2.0 | 0.00 | 0.00 | 0.00 | 74 | 1028.3 |
| 20260830155630 | 79 | 348 | 0.0 | 0.0 | 0.00 | 0.00 | 0.00 | 69 | 1028.3 |
| 20260830155125 | 81 | 327 | 4.0 | 4.0 | 0.00 | 0.00 | 0.00 | 65 | 1028.1 |
| 20260830154620 | 80 | 331 | 0.0 | 6.0 | 0.00 | 0.00 | 0.00 | 66 | 1028.2 |
| 20260830154116 | 80 | 333 | 1.0 | 2.0 | 0.00 | 0.00 | 0.00 | 66 | 1028.2 |
| 20260830153613 | 78 | 325 | 1.0 | 4.0 | 0.00 | 0.00 | 0.00 | 71 | 1028.2 |
| 20260830153112 | 78 | 326 | 3.0 | 3.0 | 0.00 | 0.00 | 0.00 | 71 | 1028.0 |
| 20260830152612 | 78 | 325 | 5.0 | 7.0 | 0.00 | 0.00 | 0.00 | 71 | 1028.1 |
| 20260830152111 | 78 | 330 | 1.0 | 4.0 | 0.00 | 0.00 | 0.00 | 71 | 1028.0 |
| 20260830151606 | 79 | 330 | 0.0 | 0.0 | 0.00 | 0.00 | 0.00 | 72 | 1028.0 |
| 20260830151101 | 78 | 329 | 0.0 | 3.0 | 0.00 | 0.00 | 0.00 | 74 | 1028.1 |
| 20260830150600 | 76 | 327 | 2.0 | 4.0 | 0.00 | 0.00 | 0.00 | 72 | 1028.0 |
| 20260830150055 | 76 | 318 | 3.0 | 4.0 | 0.00 | 0.00 | 0.00 | 75 | 1028.1 |
| 20260830145554 | 76 | 318 | 4.0 | 6.0 | 0.00 | 0.00 | 0.00 | 74 | 1027.7 |
| 20260830145050 | 76 | 318 | 3.0 | 4.0 | 0.00 | 0.00 | 0.00 | 75 | 1028.0 |
| 20260830144546 | 76 | 319 | 5.0 | 7.0 | 0.00 | 0.00 | 0.00 | 73 | 1028.0 |
| 20260830144041 | 75 | 326 | 4.0 | 6.0 | 0.00 | 0.00 | 0.00 | 75 | 1027.9 |
| 20260830143537 | 74 | 336 | 3.0 | 4.0 | 0.00 | 0.00 | 0.00 | 77 | 1027.9 |
| 20260830143035 | 74 | 326 | 2.0 | 6.0 | 0.00 | 0.00 | 0.00 | 76 | 1027.9 |
| 20260830142531 | 76 | 328 | 1.0 | 4.0 | 0.00 | 0.00 | 0.00 | 73 | 1028.0 |
| 20260830142026 | 76 | 328 | 2.0 | 6.0 | 0.00 | 0.00 | 0.00 | 77 | 1027.9 |
| 20260830141521 | 76 | 343 | 2.0 | 4.0 | 0.00 | 0.00 | 0.00 | 76 | 1027.9 |
| 20260830141015 | 76 | 333 | 0.0 | 2.0 | 0.00 | 0.00 | 0.00 | 76 | 1027.5 |
| 20260830140515 | 74 | 332 | 2.0 | 3.0 | 0.00 | 0.00 | 0.00 | 76 | 1027.9 |
| 20260830140011 | 74 | 328 | 3.0 | 6.0 | 0.00 | 0.00 | 0.00 | 76 | 1027.5 |
| 20260830135500 | 75 | 331 | 2.0 | 4.0 | 0.00 | 0.00 | 0.00 | 76 | 1027.5 |
| 20260830134955 | 75 | 327 | 4.0 | 6.0 | 0.00 | 0.00 | 0.00 | 74 | 1027.6 |
| 20260830134450 | 74 | 337 | 3.0 | 3.0 | 0.00 | 0.00 | 0.00 | 77 | 1027.7 |
| 20260830133946 | 74 | 328 | 4.0 | 6.0 | 0.00 | 0.00 | 0.00 | 76 | 1027.6 |
| 20260830133442 | 74 | 340 | 2.0 | 6.0 | 0.00 | 0.00 | 0.00 | 75 | 1027.7 |
| 20260830132937 | 74 | 338 | 3.0 | 4.0 | 0.00 | 0.00 | 0.00 | 79 | 1027.7 |
| 20260830132433 | 74 | 342 | 1.0 | 3.0 | 0.00 | 0.00 | 0.00 | 76 | 1027.9 |
| 20260830131931 | 73 | 342 | 1.0 | 4.0 | 0.00 | 0.00 | 0.00 | 78 | 1027.7 |
| 20260830131426 | 73 | 338 | 3.0 | 3.0 | 0.00 | 0.00 | 0.00 | 79 | 1028.0 |
| 20260830130920 | 72 | 338 | 3.0 | 3.0 | 0.00 | 0.00 | 0.00 | 80 | 1027.6 |
| 20260830130416 | 72 | 342 | 2.0 | 3.0 | 0.00 | 0.00 | 0.00 | 81 | 1027.7 |
| 20260830125914 | 71 | 342 | 1.0 | 2.0 | 0.00 | 0.00 | 0.00 | 81 | 1027.6 |
| 20260830125411 | 71 | 342 | 2.0 | 3.0 | 0.00 | 0.00 | 0.00 | 81 | 1027.9 |
| 20260830124908 | 71 | 342 | 1.0 | 3.0 | 0.00 | 0.00 | 0.00 | 81 | 1027.7 |
| 20260830124403 | 71 | 346 | 2.0 | 3.0 | 0.00 | 0.00 | 0.00 | 85 | 1027.7 |
| 20260830123900 | 70 | 351 | 2.0 | 3.0 | 0.00 | 0.00 | 0.00 | 84 | 1027.7 |
| 20260830123356 | 70 | 354 | 2.0 | 3.0 | 0.00 | 0.00 | 0.00 | 86 | 1027.9 |
| 20260830122854 | 69 | 359 | 2.0 | 3.0 | 0.00 | 0.00 | 0.00 | 88 | 1027.6 |
| 20260830122348 | 68 | 1 | 2.0 | 2.0 | 0.00 | 0.00 | 0.00 | 86 | 1027.7 |
| 20260830121843 | 68 | 9 | 2.0 | 2.0 | 0.00 | 0.00 | 0.00 | 88 | 1027.7 |
| 20260830121343 | 67 | 16 | 0.0 | 0.0 | 0.00 | 0.00 | 0.00 | 89 | 1028.0 |
| 20260830120838 | 67 | 21 | 0.0 | 0.0 | 0.00 | 0.00 | 0.00 | 91 | 1027.9 |
| 20260830120333 | 66 | 23 | 0.0 | 0.0 | 0.00 | 0.00 | 0.00 | 91 | 1027.9 |
| 20260830115830 | 66 | 27 | 0.0 | 0.0 | 0.00 | 0.00 | 0.00 | 91 | 1027.9 |
| 20260830115326 | 65 | 34 | 0.0 | 0.0 | 0.00 | 0.00 | 0.00 | 92 | 1027.9 |
| 20260830114821 | 65 | 38 | 0.0 | 0.0 | 0.00 | 0.00 | 0.00 | 92 | 1027.9 |
| 20260830114312 | 65 | 41 | 0.0 | 0.0 | 0.00 | 0.00 | 0.00 | 92 | 1027.6 |
| 20260830113807 | 65 | 43 | 0.0 | 0.0 | 0.00 | 0.00 | 0.00 | 92 | 1027.6 |
| 20260830113302 | 65 | 43 | 1.0 | 2.0 | 0.00 | 0.00 | 0.00 | 92 | 1027.5 |
| 20260830112758 | 64 | 45 | 1.0 | 2.0 | 0.00 | 0.00 | 0.00 | 92 | 1027.6 |
| 20260830112253 | 64 | 48 | 1.0 | 2.0 | 0.00 | 0.00 | 0.00 | 92 | 1027.5 |
| 20260830111749 | 64 | 50 | 2.0 | 2.0 | 0.00 | 0.00 | 0.00 | 93 | 1027.6 |
| 20260830111244 | 64 | 51 | 1.0 | 2.0 | 0.00 | 0.00 | 0.00 | 93 | 1027.6 |
| 20260830110743 | 64 | 52 | 1.0 | 2.0 | 0.00 | 0.00 | 0.00 | 93 | 1027.5 |
| 20260830110240 | 64 | 51 | 1.0 | 2.0 | 0.00 | 0.00 | 0.00 | 93 | 1027.5 |
| 20260830105740 | 64 | 50 | 1.0 | 2.0 | 0.00 | 0.00 | 0.00 | 93 | 1027.5 |
| 20260830105236 | 64 | 51 | 2.0 | 2.0 | 0.00 | 0.00 | 0.00 | 92 | 1027.5 |
| 20260830104732 | 64 | 52 | 2.0 | 2.0 | 0.00 | 0.00 | 0.00 | 92 | 1027.4 |
| 20260830104229 | 64 | 53 | 2.0 | 2.0 | 0.00 | 0.00 | 0.00 | 93 | 1027.1 |
| 20260830103728 | 64 | 53 | 1.0 | 3.0 | 0.00 | 0.00 | 0.00 | 92 | 1027.2 |